BANGABANDHUSAT-1

Last updated on Fri Dec 19 2025 00:02:52 GMT+0000 (Coordinated Universal Time)

1 43463U 18044A 25352.66799375 -.00000337 00000+0 00000+0 0 9998 2 43463 0.0238 77.2603 0001967 190.5914 179.2541 1.00272979 27906
UTC large
Height (km)
Speed (km/s)
/
Latitude / Longitude
Inclination (degrees)
Orbital Period (minutes)
Azimuth
Elevation
Range (km)
Doppler Factor

Next 0 passes for location: London (51.5072 / 0.1276)

Sorry there are no passes over London.